Дата Пункты Температура Давл., мм. Влажн., % Ветер Погодные явления
Воздуха Воды Направл. Скорость
16.02.18 08:00 Одесса 2.0 3.0 766 98 Ю 1 20 ЧАСОВ
16.02.18 05:00 Одесса 2.0 3.0 766 98 Ю-В 2 17 ЧАСОВ
16.02.18 02:00 Одесса 2.0 3.0 766 98 В 2 14 ЧАСОВ
16.02.18 11:00 Одесса 2.0 3.0 767 100 В 1 11 ЧАСОВ
16.02.18 08:00 Одесса 2.0 3.0 766 100 С-В 3 08 ЧАСОВ
16.02.18 05:00 Одесса 2.0 3.0 765 100 С-В 3 05 ЧАСОВ
16.02.18 02:00 Одесса 3.0 3.0 765 100 С-В 4 02 ЧАСА
15.02.18 11:00 Одесса 3.0 3.0 764 100 В 3 23 ЧАСА
15.02.18 08:00 Одесса 3.0 3.0 763 100 В 3 20 ЧАСОВ
15.02.18 05:00 Одесса 3.0 3.0 762 97 В 7 17 ЧАСОВ
15.02.18 02:00 Одесса 3.0 3.0 761 96 В 7 14 ЧАСОВ
15.02.18 11:00 Одесса 2.0 3.0 761 96 В 5 11 ЧАСОВ
15.02.18 08:00 Одесса 2.0 3.0 760 96 В 5 08 ЧАСОВ
15.02.18 05:00 Одесса 2.0 3.0 760 94 В 6 05 ЧАСОВ
15.02.18 02:00 Одесса 1.0 3.0 760 92 В 8 02 ЧАСА
14.02.18 11:00 Одесса 1.0 3.0 760 93 В 8 23 ЧАСА
14.02.18 08:00 Одесса 1.0 3.0 760 93 В 6 20 ЧАСОВ
14.02.18 05:00 Одесса 1.0 3.0 760 86 В 7 17 ЧАСОВ
14.02.18 02:00 Одесса 1.0 3.0 760 88 В 4 14 ЧАСОВ
14.02.18 11:00 Одесса 1.0 3.0 760 91 В 8 11 ЧАСОВ
Количество строк
1 2 3 4 5 6 7 8 9 10
Page 2 of 330